{"data":{"norad_id":58120,"epoch":"2026-05-25T03:23:26.854656Z","epoch_age_seconds":63014,"freshness":"FRESH","line1":"1 58120U 23162C   26145.14128304  .00001795  00000+0  74711-4 0  9996","line2":"2 58120  43.0055  60.3734 0001220 266.6174  93.4539 15.27587968144005","mean_motion":15.27587968,"eccentricity":0.000122,"inclination_deg":43.0055,"raan_deg":60.3734,"arg_perigee_deg":266.6174,"mean_anomaly_deg":93.4539,"bstar":7.4711e-5,"rev_number":14400,"period_min":94.266257012048,"perigee_km":482.18817529197,"apogee_km":483.86229887781,"semimajor_km":6861.1622370849,"source":"CELESTRAK","updated_at":"2026-05-25T13:38:18.530975Z"}}